顯示廣告
隱藏 ✕
※ 本文轉寄自 ptt.cc 更新時間: 2026-09-01 15:27:17
看板 Baseball
作者 hanksadder (小孤獨)
標題 [LIVE] MLB 老虎 vs 雙城   李灝宇先發9棒 3B
時間 Tue Sep  1 07:27:00 2026

▋  2026   美國職棒例行賽
▋ 比賽球場    Target Field                 ▋ 比賽時間    2026.09.01  07:40

底特律老虎
                               AVG   OBP   SLG   OPS   HR   RBI   SB   BB
1.Gleyber Torres       (R) 2B  .261  .364  .383  .747    8    36    0   46
2.Colt Keith           (L) DH  .259  .319  .405  .724    9    32    5   28
3.Kevin McGonigle      (L) SS  .276  .377  .418  .795   14    58   12   81
4.Dillon Dingler       (R) C   .251  .316  .472  .788   26    82    0   32
5.Brett Callahan       (L) LF  .259  .300  .481  .781    1     6    0    1
6.Zach McKinstry       (L) RF  .213  .297  .314  .611    4    26    2   37
7.Spencer Torkelson    (R) 1B  .220  .312  .403  .715   20    63    0   57
8.Max Clark            (L) CF  .242  .301  .411  .712    2    13    1    7
9.李灝宇               (R) 3B  .266  .312  .411  .723    7    33    2   17

SP.Jackson Jobe         (R)                       對左打 .227 │ 對右打 .320
  G    GS    IP    W   L   ERA    SO   BB   WHIP                      
    4    4   18.1   1   1   3.93   15    8   1.42       2026賽季成績


明尼蘇達雙城
                               AVG   OBP   SLG   OPS   HR   RBI   SB   BB
1.Luke Keaschall       (R) RF  .274  .364  .390  .754    9    41   15   49
2.Brooks Lee           (S) 3B  .248  .300  .439  .739   22    73    7   33
3.Kody Clemens         (L) 2B  .236  .293  .459  .752   22    67    8   30
4.Ryan Jeffers         (R) C   .270  .375  .464  .839   10    42    1   40
5.Josh Bell            (S) DH  .255  .318  .421  .739   17    83    2   42
6.Trevor Larnach       (L) LF  .266  .348  .424  .772   11    45    2   42
7.Royce Lewis          (R) 1B  .233  .299  .396  .695   13    46   14   34
8.Kaelen Culpepper     (R) SS  .313  .365  .478  .843    3     6    0    4
9.Walker Jenkins       (L) CF  .222  .300  .333  .633    0     1    1    1

SP.Taj Bradley          (R)                       對左打 .215 │ 對右打 .236
  G    GS    IP    W   L   ERA    SO   BB   WHIP                      
    26    26  147.1   9   6   3.97  169   63   1.28       2026賽季成績

執法裁判│HP: Jeremie Rehak.
          1B: Adam Beck.
          2B: Dan Iassogna.
          3B: Brock Ballou.
──────────────────────────────────────

台灣轉播頻道           開播時間      主播        講評                      

ELTA體育4台            07:35                              原音     MOD/OTT




台灣網路轉播                                                                

Vocal: ELTA(原音)
ELTA.TV     (付費)   https://eltaott.tv/
愛爾達ELTA TV影視 | 線上看熱門體育賽事和熱播連續劇
【愛爾達電視/ELTA.TV】FIFA世界盃™ 直播首選!完整觀看FIFA世界盃™ 足球賽LIVE直播,還有亞運、MLB棒球、中華職棒、BWF羽球、英超足球、歐冠、F1賽車與網球等熱門賽事。同步提供韓劇、陸劇、新聞與國際頻道,多元影音內容盡在ELTA.TV,立即註冊觀看! ...

 
Hami Video  (付費)   https://hamivideo.hinet.net/
中華電信 Hami Video | 懂你想看的OTT線上影視平台
[圖]
Hami Video 台灣影視品牌No.1,電影內容最多元、獨家搶先戲劇、新番動漫不漏接,TVBS/東森/三立熱門新聞與節目頻道、CPBL/MLB運動賽事直播線上看,讓您在電腦、手機、平板、機上盒、數位電視機上輕鬆收看,視界首選、懂你想看。 ...

 

Vocal: MLB.TV(主場/客場)
MLB.TV      (付費)   https://www.mlb.com/tv/g823663/
Gameday - 文字轉播   https://www.mlb.com/gameday/823663/


--
--
※ 發信站: 批踢踢實業坊(ptt.cc), 來自: 36.229.153.32 (臺灣)
※ 作者: hanksadder 2026-09-01 07:27:00
※ 文章代碼(AID): #1gbWt7HV (Baseball)
※ 文章網址: https://www.ptt.cc/bbs/Baseball/M.1788218823.A.45F.html
※ 編輯: hanksadder (36.229.153.32 臺灣), 09/01/2026 07:27:09
samuncle123: 終於不是遇到賽揚獎  加油加油1F 09/01 07:31
lsj049: 李灝宇加油~2F 09/01 07:34
ilovesola: 加油!3F 09/01 07:36
CaminoI: 加油!4F 09/01 07:39
lsj049: 愛爾達開播~5F 09/01 07:40
Eric00132: 體育二台 李政厚出賽6F 09/01 07:43
lsj049: 老虎把John Peck 升上來了7F 09/01 07:43
lsj049: https://i.imgur.com/XrxsWiT.jpeg
[圖]
Eric00132: 體育四台 怎麼沒李灝宇的出賽字卡9F 09/01 07:44
Artist: 李打第9棒 成績好像都比較好 今天可以再驗證一下10F 09/01 07:45
CaminoI: John Peck查一下好像二三游都有守 工具人?11F 09/01 07:50
hansvonboltz: 對面也有李12F 09/01 07:51
cubanmesa: 愛爾達:老虎李灝宇<巨人李政後<道奇大谷13F 09/01 07:54
CaminoI: 剛才勇士還有上投手Lee14F 09/01 07:55
rong1994: 老虎這打線真的慘15F 09/01 07:55
x75917x: 老虎打擊真的毫無期待感16F 09/01 07:57
CaminoI: 單看先發個人數據都有兩成以上 好像沒那麼差 但實際上近17F 09/01 07:57
CaminoI: 期整體發揮串連少
t340081231: 噓愛爾達記得做李政厚字卡結果沒有李灝宇的字卡19F 09/01 07:57
CaminoI: 和五月時好幾位一成打者狀態 結果差不多20F 09/01 07:58
JackeyChen: 好涼啊21F 09/01 07:58
CaminoI: 有生意22F 09/01 08:00
luyun15: 我開愛爾達看沒字卡還以為今天沒先發= =23F 09/01 08:02
wenhh88: 八字不夠重,打789棒當奇兵就好24F 09/01 08:04
CaminoI: 灝宇已經是今天先發打線打擊率第二高的 僅次於少主25F 09/01 08:06
cubanmesa: 集合26F 09/01 08:08
lsj049: 戰隊集合27F 09/01 08:08
ProducerChen: 集合28F 09/01 08:08
CaminoI: 加油29F 09/01 08:08
JackeyChen: 對面的Lee Np30F 09/01 08:08
Chen96770: 集合31F 09/01 08:08
CaminoI: 三壘的Lee32F 09/01 08:09
freeview: 海33F 09/01 08:09
ProducerChen: 好好選!34F 09/01 08:09
ProducerChen: 今天有兩個三壘李
lsj049: 怎麼不拍頭36F 09/01 08:09
CaminoI: 應該挑戰的37F 09/01 08:09
hsuaninteen: 挑戰484就BB了38F 09/01 08:09
CaminoI: 本來是連四顆壞球阿39F 09/01 08:09
ProducerChen: 滿40F 09/01 08:10
hanksadder: H41F 09/01 08:10
cubanmesa: H42F 09/01 08:10
Daniel0712: H43F 09/01 08:10
lsj049: HHHH44F 09/01 08:10
crayon1988: 還是穿45F 09/01 08:10
hansvonboltz: 安46F 09/01 08:10
freeview: 這滾動XD47F 09/01 08:10
CaminoI: 安打 這個結果好像比較好 XD48F 09/01 08:10
JackeyChen: 找洞49F 09/01 08:10
ProducerChen: HHHHH50F 09/01 08:10
ele55055: 李很少挑戰51F 09/01 08:10
Franc1224: 舒服52F 09/01 08:10
Axwell: 幸運53F 09/01 08:10
Benbenyale: 安打54F 09/01 08:10
neo74214: 水啦 找洞鑽!55F 09/01 08:10
snoopy63: 水56F 09/01 08:10
rong1994: 安打57F 09/01 08:10
murmur38: 硬是鑽出了內野58F 09/01 08:10
MK47: hhhhhh59F 09/01 08:10
koi33000: 有啦60F 09/01 08:10
as5688ck: 讚讚61F 09/01 08:10
b9441118: 找洞鑽推打安62F 09/01 08:10
kickvsbrad: 安63F 09/01 08:10
hpfan: 水啦64F 09/01 08:10
a0933879446: HHH65F 09/01 08:10
s31127: 安安安安安66F 09/01 08:10
Tonyx599026: 鳥安也是安 舒服67F 09/01 08:10
zerozero8: 鳥穿也是安 讚68F 09/01 08:10
photoB1N: 這也行 算你厲害69F 09/01 08:10
jjooee1428: 爽啦運氣不錯70F 09/01 08:10
sweam: 安打啦!71F 09/01 08:10
CaminoI: 太強勁 第一位攔不下來就沒辦法了72F 09/01 08:10
kevin74105: 超刁鑽安打73F 09/01 08:10
moonzone: H74F 09/01 08:10
hansvonboltz: 94.6mph75F 09/01 08:10
koi33000: 有一球可以挑戰的說 好可惜 不然保送了76F 09/01 08:11
crayon1988: EV94.6mph77F 09/01 08:11
HotGirlBear: 今天老虎第一安78F 09/01 08:11
space20021: 水水水79F 09/01 08:11
yiersan: 猛80F 09/01 08:11
clerkhsiao: 很會找洞鑽81F 09/01 08:11
CaminoI: 貢獻老虎本場第一安82F 09/01 08:11
caeiu: 可惜83F 09/01 08:11
Augustus5: 每日任務又達成啦84F 09/01 08:11
t340081231: 94.6也不算是鳥安了85F 09/01 08:11
Eric00132: 拖天子...86F 09/01 08:11
pipizone: 主審誤判撿到安打XDD87F 09/01 08:11
qoo2002s: 說不定是球隊不想要菜鳥在比賽前段挑戰88F 09/01 08:11
jiaxie: BB沒有,換到Single89F 09/01 08:11
as5688ck: 老虎打了1.5DP90F 09/01 08:12
CaminoI: 不鳥阿 很強勁 是對方野手撲了讓你覺得好像有機會91F 09/01 08:12
ProducerChen: 老虎主播是真的很喜歡他 剛剛那顆運氣超好沒打好還92F 09/01 08:12
ProducerChen: 是穿了 但還是吹XD
ggdesu: 今天運氣好一點94F 09/01 08:12
JeremyNeil: 讚讚95F 09/01 08:12
CaminoI: 就不是關鍵時刻 也沒必要96F 09/01 08:12
koi33000: 整隊就他安打 吹一下ok97F 09/01 08:12
wouldyou: 讚 每日任務達成98F 09/01 08:13
yiersan: 最近運氣不好 該補了99F 09/01 08:13
CaminoI: 打出老虎目前唯一一安 不吹他吹誰 XD100F 09/01 08:13
myhope203: 被主審搞到一隻安打101F 09/01 08:13
rong1994: 冷胡椒 2b102F 09/01 08:14
jkokpcu: 打地板3個彈跳也能穿越XD103F 09/01 08:15
wumint: 差點被攔到, 一壘有人還是比較容易穿。104F 09/01 08:15
shigeno24: 對欸居然有94麥轉播看起來鳥鳥的105F 09/01 08:15
ericlin5230: 這球用看的真的鳥106F 09/01 08:16
benboy: 彈那麼多次也能穿 是真的夠快吧XD107F 09/01 08:16
CaminoI: 對面的三壘手Lee108F 09/01 08:16
HotGirlBear: 最近很多強擊球進手套,校正回歸一下109F 09/01 08:17
CaminoI: 我們的三壘手Lee發動DP110F 09/01 08:17
wumint: np111F 09/01 08:17
koi33000: 水喔112F 09/01 08:17
rong1994: 帥啊113F 09/01 08:17
ericlin5230: LEE解決LEE114F 09/01 08:17
kevin74105: Lee Dp115F 09/01 08:17
hanksadder: 水喔116F 09/01 08:17
jiaxie: 帥!117F 09/01 08:17
koi33000: 主播又能吹了118F 09/01 08:17
caeiu: Lee DP Lee119F 09/01 08:17
zealotlai274: 有打擊有np120F 09/01 08:18
Mryuan: 還好沒粥121F 09/01 08:18
myfreeday: LEE被LEE雙殺122F 09/01 08:18
neo74214: Lee打給Lee123F 09/01 08:18
murmur38: Lee擊出強勁滾地球 被Lee接到發動雙殺124F 09/01 08:18
Mrlegend: McG又快又準125F 09/01 08:19
Jimimy: 美國這些姓Lee的祖先是怎麼有這個姓的阿?126F 09/01 08:20
CaminoI: 5K127F 09/01 08:21
t340081231: Keith最近真的有夠涼128F 09/01 08:21
Jimimy: Keith最近真的有點慘129F 09/01 08:21
CaminoI: Lee是英語原本就有的姓氏130F 09/01 08:22
Jimimy: 外野手記錯出局數131F 09/01 08:23
CaminoI: 源自古英語 所以看到是白人居多132F 09/01 08:23
myfreeday: 毫無招架之力耶133F 09/01 08:24
t340081231: 老虎這條打線ops看起來都不錯 怎麼這麼涼134F 09/01 08:24
freeview: 這打線還沒從道奇戰走出來嗎135F 09/01 08:26
a27783322: 老虎最近是啥情況== 也太烙賽136F 09/01 08:27
CaminoI: 炸裂……137F 09/01 08:27
hanksadder: 炸138F 09/01 08:27
kevin74105: 真大號139F 09/01 08:27
caeiu: 炸了140F 09/01 08:27
caeiu: 不知道Riley Greene回來會不會好一點
CRonaldo07: 李不輸對面第一輪大物的Lee142F 09/01 08:27
CaminoI: 狂換代打就會讓個人數據不致於跌太多143F 09/01 08:27
FAYeeeeeeee: 兩邊三壘手同姓144F 09/01 08:29
CaminoI: 這個看起來有機會守下的 少主……145F 09/01 08:33
gh2480f0210: 二壘手在搞吧146F 09/01 08:33
koi33000: 少主累了?147F 09/01 08:33
rong1994: 少主怎麼最近守備也是有點怪怪的148F 09/01 08:34
freeview: 算了 反正進季後賽的機會跟沒有了一樣 就當是打身價了149F 09/01 08:35
hanx5566: 大聯盟守備????150F 09/01 08:35
jiaxie: 一搞再搞151F 09/01 08:35
CaminoI: 這個看起來有機會接的說 一直煮粥152F 09/01 08:35
benrun: 這局守備..153F 09/01 08:35
Mryuan: 少煮粥154F 09/01 08:35
koi33000: ???155F 09/01 08:36
kevin74105: 好大一鍋粥156F 09/01 08:36
hanx5566: 這接球難度在哪,CPBL都不會發生157F 09/01 08:36
a0561349: 這能漏阿158F 09/01 08:36
pai0306: 什麼鬼159F 09/01 08:36
klwcoco: 說李灝宇防守爛的看看這2游  爛的有剩160F 09/01 08:36
CaminoI: 我以為在看台鋼比賽 (X)161F 09/01 08:36
hanx5566: 也不是傳在地上為什麼能接不住162F 09/01 08:36
jiaxie: 這次能dp嗎,科科163F 09/01 08:36
kickvsbrad: 這球算失誤嗎164F 09/01 08:36
CaminoI: 但少主是隊上打擊率最高 叫他用棒子道歉吧165F 09/01 08:37
a24862684: 守備比中職還爛166F 09/01 08:37
jiaxie: 投手應該心裡抹爽167F 09/01 08:37
benrun: 還好下莊168F 09/01 08:38
mike13112: 投手有夠扛169F 09/01 08:38
JeremyNeil: 這樣投手還是蠻屌的170F 09/01 08:38
CaminoI: 被記安打阿 投手真衰171F 09/01 08:39
mp5good: 失誤難免吧控制好數量就好172F 09/01 08:40
CaminoI: 老虎第二隻安打出現  McK173F 09/01 08:41
koi33000: 這局有機會上嗎174F 09/01 08:42
CaminoI: 應該把灝宇和脫殼棒次調換的175F 09/01 08:44
rong1994: 欸欸欸再上壘一個拜託176F 09/01 08:44
CaminoI: 真的好涼 這樣打擊根本無法串連177F 09/01 08:44
rong1994: …178F 09/01 08:45
allenbaba: 又 打不到 壘上有人179F 09/01 08:45
koi33000: 沒機會180F 09/01 08:45
hanksadder: GG 又要下一局了...181F 09/01 08:45
neo74214: 打線真的很悲劇182F 09/01 08:45
kevin74105: 慘 都不給李打點集會183F 09/01 08:45
myfreeday: 超人一球死184F 09/01 08:45
koi33000: 最近都沒打點185F 09/01 08:45
bingreen: 老虎打線怎麼有點弱= =186F 09/01 08:46
mp5good: max clark揮第一球自殺187F 09/01 08:46
CaminoI: 灝宇也……188F 09/01 08:47
TRosenthal: ….189F 09/01 08:47
sharrys: 李失誤190F 09/01 08:47
TRosenthal: 守備啊191F 09/01 08:47
myfreeday: 靠192F 09/01 08:47
hansvonboltz: ....193F 09/01 08:47
Mryuan: 蒸丸194F 09/01 08:47
photoB1N: 完蛋195F 09/01 08:47
neo74214: E196F 09/01 08:47
marx93521: E197F 09/01 08:47
iamzara: 這守備...198F 09/01 08:47
caeiu: 醜了199F 09/01 08:47
leo79415: 你們還敢笑少主阿 迴力鏢不就來了 笑死200F 09/01 08:48
mp5good: 好e201F 09/01 08:48
JeremyNeil: ......今天大家是怎樣202F 09/01 08:48
CaminoI: 底特律台鋼是不是?一直粥203F 09/01 08:48
MK47: ......204F 09/01 08:48
rong1994: 完蛋了205F 09/01 08:48
marx93521: 守備再加油吧206F 09/01 08:48
Mrlegend: 乾207F 09/01 08:48
jiaxie: 李守備還是...208F 09/01 08:48
CaminoI: 少主是拿大約的阿209F 09/01 08:48
kevin74105: 太燙了210F 09/01 08:48
koi33000: 今天球很燙?211F 09/01 08:48
freeview: 投手滿命苦的212F 09/01 08:48
zzz753951753: 心不在焉是不是213F 09/01 08:48
jiaxie: 近三場守備都有這樣的球214F 09/01 08:49
HotGirlBear: 投手快抓狂了吧215F 09/01 08:49
rong1994: 對面的Lee好猛 22轟216F 09/01 08:49
Mryuan: 總之 太急217F 09/01 08:49
Mrlegend: 等等打擊來一隻道歉一下218F 09/01 08:50
koi33000: 灝宇不想讓少主孤單 一起e219F 09/01 08:51
CaminoI: 少主 你好歹要接到球阿……220F 09/01 08:52
jiaxie: 手套真的接不住球221F 09/01 08:52
Mryuan: 還好少煮搶鏡222F 09/01 08:52
Marshalkobe2: 老虎的防守真的超好笑223F 09/01 08:52
Mryuan: 又來XD224F 09/01 08:52
koi33000: 差點出事225F 09/01 08:52
CaminoI: 這兩位剛好是老虎打擊率一二名的226F 09/01 08:53
zzz753951753: 跑者好帥227F 09/01 08:53
wumint: 老虎今天球很燙228F 09/01 08:53
CaminoI: 釘子John Peck:我準備好了229F 09/01 08:54
rong1994: 老虎野手滿滿的(打擊)天賦230F 09/01 08:54
JeremyNeil: 二壘跳來跳去看投手沒有231F 09/01 08:55
CaminoI: McK上局也是有隱形失誤 軟弱球沒接到變安打232F 09/01 08:55
jiaxie: 12球了233F 09/01 08:55
CaminoI: BB  Jobe心裡苦234F 09/01 08:55
kevin74105: 守備搞死投手了235F 09/01 08:56
CaminoI: 三分砲236F 09/01 08:57
hansvonboltz: 買單237F 09/01 08:57
hanx5566: 被懲罰了238F 09/01 08:57
hanksadder: 炸239F 09/01 08:57
rong1994: 崩了240F 09/01 08:58
kevin74105: 乾出大事了241F 09/01 08:58
myfreeday: 去了242F 09/01 08:58
hanksadder: Jeffers 三分砲243F 09/01 08:58
neo74214: 買單244F 09/01 08:58
wumint: 失誤傷害到了!245F 09/01 08:58
JeremyNeil: 投手快吐了246F 09/01 08:59
riya: 這些怪物打97mile高球跟吃飯喝水一樣247F 09/01 08:59
Mryuan: 苦情投手248F 09/01 08:59
a27783322: 前少主完全爆炸249F 09/01 08:59
Mrlegend: 四番就是猛250F 09/01 08:59
kouhei: 這就是棒球你怎麼能不愛他251F 09/01 08:59
bluehttp: 七月猛虎 八月變病貓252F 09/01 09:00
a27783322: 看起來很不爽253F 09/01 09:02
josh861010: 投手投到快哭出來254F 09/01 09:02
as5688ck: 人還是要靠自己255F 09/01 09:03
Mryuan: 集合256F 09/01 09:04
seven782: 炸257F 09/01 09:04
neyothen: 炸258F 09/01 09:04
CaminoI: 炸裂啦259F 09/01 09:04
inschool: 777777777777777260F 09/01 09:05
hansvonboltz: 道歉野球261F 09/01 09:05
leo79415: 用棒子道歉一下 QQ262F 09/01 09:05
photoB1N: 77777263F 09/01 09:05
a27783322: 哇操 炸264F 09/01 09:05
jiaxie: 李炸裂啦265F 09/01 09:05
LogDee: 炸裂!266F 09/01 09:05
Mryuan: 炸267F 09/01 09:05
cat110211: 道歉268F 09/01 09:05
arrc21: 炸269F 09/01 09:05
koi33000: 道歉啦270F 09/01 09:05
zealotlai274: 可惜不是上ㄧ局271F 09/01 09:05
hanksadder: 炸!!!272F 09/01 09:05
xul4rmpcl4: 炸273F 09/01 09:05
neo74214: 爽啦!!!274F 09/01 09:05
amo2021: 炸裂!275F 09/01 09:05
a23644910: 確信步276F 09/01 09:05
qsc115: 道歉野球277F 09/01 09:05
htckenny: 可惜不是上半局278F 09/01 09:05
rong1994: 帥啊老李279F 09/01 09:05
caeiu: 對自己太氣了 先轟一發280F 09/01 09:05
CaminoI: 剛才如果排七棒 就業滷蛋了281F 09/01 09:05
mole1224: 好了 還你一分 道歉野球282F 09/01 09:05
Mrlegend: 真的道歉了283F 09/01 09:05
jammes: 道歉野球284F 09/01 09:05
l5i9hbba: 道歉野球 自己丟的一分幫忙還285F 09/01 09:05
a27783322: 逮到肉包 水286F 09/01 09:05
mp5good: 炸炸炸287F 09/01 09:05
v11nce1217: 笑死 真的帶棒子上去守備 猛288F 09/01 09:05
leo79415: 連投紅中進來 真是把我李看沒有289F 09/01 09:05
signm: 媽的,真的好強290F 09/01 09:05
CaminoI: 就「有」291F 09/01 09:05
moonzone: 道歉了292F 09/01 09:05
kaiic: 跟到啦 確信步293F 09/01 09:05
singindream: 讚到不行!!!294F 09/01 09:05
as5688ck: 李道歉一次 換少主了嗎295F 09/01 09:05
mp5good: 道歉野球296F 09/01 09:05
Wwc0130: 舒服 剛開就看到了確信步297F 09/01 09:05
thirtyto: 紅中  炸298F 09/01 09:05
gn7722: 整個確信步,超帥299F 09/01 09:05
hpfan: 道歉野球還確信步!帥慘了!300F 09/01 09:05
Jason1623: 一分還一分301F 09/01 09:05
Ommmmmm5566: 打道奇太悶了302F 09/01 09:05
sky71030706: 被前面那個自殺棒害死303F 09/01 09:06
wouldyou: 道歉野球 雞皮疙瘩304F 09/01 09:06
Marshalkobe2: 他算丟三分 還欠兩分305F 09/01 09:06
Mryuan: ————-超級兇————-306F 09/01 09:06
JeremyNeil: 道歉Leeeeeeeeee307F 09/01 09:06
wumint: 今天雙響才能道歉308F 09/01 09:06
KansasMay: 爽啦309F 09/01 09:06
ykd: 道歉炸裂310F 09/01 09:06
Mrlegend: 算利息的話還欠一隻滿貫311F 09/01 09:07
l5i9hbba: 這一發439 也是有夠遠312F 09/01 09:07
koi33000: 不過李真的客場比較會打313F 09/01 09:07
bluehttp: 可惜沒人在壘314F 09/01 09:07
Jimimy: 也不能這樣算拉 後面有個保送315F 09/01 09:07
yiersan: 爽316F 09/01 09:07
leo79415: 這球初速109mhp 拋瓦真是誇張317F 09/01 09:07
gn7722: 擊球初速109.6318F 09/01 09:07
l5i9hbba: Jobe後面自己還保送 有這樣算的= =?319F 09/01 09:07
rong1994: 只能說Hinch這個排棒次還是神人一個 左右病也不看數據320F 09/01 09:07
gn7722: 我要是教練看到他每次的擊球初速口水早流下來了321F 09/01 09:08
tinlover227: 拜託再來一隻322F 09/01 09:08
gn7722: 李灝宇失誤也就是變成一壘有人而已323F 09/01 09:08
gn7722: 哪那麼嚴重
zzz753951753: 李的打擊排到9棒真的呵呵325F 09/01 09:08
gn7722: 投手自己問題326F 09/01 09:08
Marshalkobe2: 李的確信步很帥 真的很像中南美洲的強打327F 09/01 09:08
CaminoI: 老虎球場特性 全壘打球不容易出去328F 09/01 09:08
leo79415: 輪到少主道歉329F 09/01 09:08
Jimimy: 李變起爆劑了330F 09/01 09:08
rong1994: 明明打右就比較好 近況擊球也都很紮實選球好 偏要擺9331F 09/01 09:09
jiaxie: 老虎反攻來囉332F 09/01 09:09
mp5good: 少主也道歉一顆吧333F 09/01 09:09
kevin74105: 李在後面棒次真的打比較好  很玄334F 09/01 09:09
CaminoI: 虎迷幻視胖卡布 www335F 09/01 09:09
neo74214: 我不懂為什麼愛爾達中文轉播不是播這場…336F 09/01 09:09
CaminoI: 少主道歉失敗337F 09/01 09:09
KansasMay: 少主GG338F 09/01 09:09
Marshalkobe2: 差點339F 09/01 09:09
neo74214: 靠杯 好可惜340F 09/01 09:10
Jimimy: 差點再道歉一次341F 09/01 09:10
l5i9hbba: 少主差一點342F 09/01 09:10
rong1994: 不過也可能投手壘上沒人對後段棒次心態也有差啦343F 09/01 09:10
Mryuan: 差一點道歉344F 09/01 09:10
koi33000: 少主可惜345F 09/01 09:10
mp5good: 打得不錯啦差一點346F 09/01 09:10
Mrlegend: 叮哥可以嗎347F 09/01 09:10
neo74214: 你他媽…348F 09/01 09:11
fs1uc01s21: 慘349F 09/01 09:11
koi33000: 丁哥…350F 09/01 09:11
JeremyNeil: ....丁哥你他嗎351F 09/01 09:11
HotGirlBear: 要打擊有棒子,要守備還是有棒子,MLB要的類型XD352F 09/01 09:11
mp5good: 老虎打線真的...353F 09/01 09:11
Mryuan: 可惜不是李 壓棒到最後354F 09/01 09:11
samyou: 慘355F 09/01 09:11
Marshalkobe2: 又沒了 真鳥356F 09/01 09:11
jiaxie: 慘 dp 沒再追分357F 09/01 09:11
xx820110: 丁哥你…358F 09/01 09:11
myfreeday: 丁哥.....359F 09/01 09:11
a27783322: == 不是跟我說要反攻了360F 09/01 09:11
hanksadder: 0.0361F 09/01 09:11
rong1994: 好不連貫的打線362F 09/01 09:11
wumint: 灝宇放4棒就好了!363F 09/01 09:11
l5i9hbba: 李剛那一發揮棒速度80mph 超扯364F 09/01 09:11
zzz753951753: 關電視,爛透了365F 09/01 09:11
sky71030706: 我看起來是dp還沒打完就dp 了366F 09/01 09:11
GIGAADSL: 丁哥 可惜367F 09/01 09:12
Jimimy: 話說這個確信步 下一個打席不會被砸吧 有些投手很敏感的368F 09/01 09:12
asutoranakan: 對李灝宇丟紅中,是失投還是投手瞧不起人啊....369F 09/01 09:13
CaminoI: 瘋狂重播全壘打 XD370F 09/01 09:13
s93310034: 改成高抬腿 整個揮棒變快了?371F 09/01 09:13
stilu: 結果只拿hr那一分= =372F 09/01 09:13
leo79415: 對面轟好幾發也確性步丟棒沒在客氣的阿 沒在看喔373F 09/01 09:13
chargebro: 打到誰的毛巾374F 09/01 09:13
CaminoI: 只有毛巾受傷 人沒事 XD375F 09/01 09:13
rong1994: 有夠帥的這個確信步376F 09/01 09:13
koi33000: 怎麼打出去的臉感覺沒有很爽XD377F 09/01 09:13
wumint: 僅管是右投,全隊4安,李雙安一轟,不該放9棒啊!378F 09/01 09:13
CaminoI: 因為前面沒人阿379F 09/01 09:14
leo79415: 大概是李打後段棒次成績比較好才放的380F 09/01 09:14
CaminoI: 比數落後 才追一分而已381F 09/01 09:14
koi33000: 打最好好像是第六棒382F 09/01 09:14
asutoranakan: 贏太多,投手隨便丟383F 09/01 09:14
CaminoI: 這樣說也不合理 之前放二棒也有和少主連線384F 09/01 09:14
asutoranakan: 但老虎最近的確滿貧打的385F 09/01 09:15
koi33000: 9的好處可能是可以串前段棒次吧386F 09/01 09:15
CaminoI: 說對道奇沒打好 但整隊都涼阿387F 09/01 09:15
CaminoI: 投手你自己吞了吧
Mrlegend: 傻眼389F 09/01 09:16
Jimimy: 原來一壘指導教練是Sizemore390F 09/01 09:17
marx93521: 老虎的守備……391F 09/01 09:17
s93310034: 九棒很好啊 壓力小 對手會小看你 投紅中給你392F 09/01 09:18
Jimimy: 這投手投本壘和一壘都不準393F 09/01 09:18
CaminoI: 排九棒 但打擊率隊上第二 也不可能多大意吧394F 09/01 09:19
rong1994: 站在球隊得分角度來看不該擺9 但對李來說擺9確實是不錯395F 09/01 09:19
rong1994: 啦 壓力小投手也比較容易心態鬆懈
neyothen: 放火牛棚 一堆壞球397F 09/01 09:19
myfreeday: 太狂野了398F 09/01 09:19
Jimimy: 這控球.....399F 09/01 09:20
l5i9hbba: 現在都會有球探報告 灝宇的情報 怎麼可能會因為9棒就大400F 09/01 09:20
l5i9hbba: 意..
rong1994: 不過每一場都少打一次也蠻虧的402F 09/01 09:20
jiaxie: BB堆滿壘403F 09/01 09:20
Marshalkobe2: 這是鬼牛棚笑死404F 09/01 09:20
chargebro: 超接近405F 09/01 09:20
Loveis5566: Sizemore好熟悉的名字406F 09/01 09:20
Marshalkobe2: 觀眾上去投還比較準407F 09/01 09:20
Jimimy: 怎麼感覺這場會魯閣408F 09/01 09:21
chargebro: 互相挑戰失敗409F 09/01 09:21
foxey: 主審鷹眼410F 09/01 09:21
neyothen: 炸開 慘411F 09/01 09:21
PPTenshi: 炸開囉412F 09/01 09:21
rong1994: 神人牛棚413F 09/01 09:22
myfreeday: 顆顆這場GG了414F 09/01 09:22
CaminoI: 慘415F 09/01 09:22
inschool: 喵416F 09/01 09:22
saffron27: 換了一個更爛的417F 09/01 09:22
hanksadder: 一棒清壘 要走遠囉418F 09/01 09:22
leo79415: 對面李也發威了419F 09/01 09:22
koi33000: 清壘了420F 09/01 09:22
jiaxie: 清光光421F 09/01 09:22
thirtyto: 投了幾個好球  到底422F 09/01 09:22
powerman100: 老虎下課了……423F 09/01 09:22
CaminoI: 重點是少打一次很虧 往前段集中串連比較實在424F 09/01 09:22
PPTenshi: 沒有Jake Rogers了 野手還有誰能上來丟的 ZMac?425F 09/01 09:22
MK47: 沒差啦 專心看李就好了426F 09/01 09:23
keltt: 一壘安打清壘427F 09/01 09:23
CaminoI: 看板凳還有誰吧 差8分就能上野手了428F 09/01 09:23
a27783322: lol 老虎可以專心練兵了 今年涼了429F 09/01 09:24
PPTenshi: 自從被白襪橫掃以後就崩了430F 09/01 09:24
lsj049: 李灝宇會不會被叫上去投球啊www431F 09/01 09:24
CaminoI: 4安1分 v.s. 7安8分 哈哈432F 09/01 09:24
CaminoI: 就退回到五月的老虎阿
shigeno24: 守備變-11了 怎麼漲這麼快434F 09/01 09:27
McRay: 被打成北美軟喵435F 09/01 09:29
kevin74105: 要出大事了 準備堆壘包換LEE436F 09/01 09:30
rong1994: 拜託 讓李上來清壘437F 09/01 09:31
leo79415: 李上來滿貫一發438F 09/01 09:31
CaminoI: 老虎X小編好像罷工 最新貼文停在灝宇製造DP 全壘打也沒貼439F 09/01 09:32
jiaxie: 不介意塞滿壘440F 09/01 09:32
rong1994: 感覺對李八成會換投441F 09/01 09:32
CaminoI: 來了442F 09/01 09:32
hpfan: 加油443F 09/01 09:32
inschool: 衝阿444F 09/01 09:32
zealotlai274: 有滷蛋445F 09/01 09:32
cubanmesa: 集合446F 09/01 09:33
Mryuan: 集合447F 09/01 09:33
f8806kimo: 來囉來囉448F 09/01 09:33
pandergast: 再來一發449F 09/01 09:33
shigeno24: 2出局得點圈的Lee來了450F 09/01 09:33
jerrychien06: 在道歉一發吧451F 09/01 09:33
rong1994: 沒換 領先太多452F 09/01 09:33
PPTenshi: 敢不敢再一支453F 09/01 09:33
neyothen: 太急了454F 09/01 09:33
jerrychien06: 可惜啊 第一球好甜455F 09/01 09:33
zealotlai274: 猜錯啦456F 09/01 09:33
CaminoI: 冷靜阿 不要被騙到457F 09/01 09:33
SphereDavid: 再一隻嗎458F 09/01 09:33
woddy: 集合459F 09/01 09:33
zealotlai274: 100460F 09/01 09:33
CaminoI: 100四縫選掉461F 09/01 09:34
jun10: 敢不敢雙響462F 09/01 09:34
CaminoI: 應該說破壞463F 09/01 09:34
Axwell: 選464F 09/01 09:34
jerrychien06: 100能碰掉465F 09/01 09:34
Axwell: 選真好466F 09/01 09:34
wumint: 越投越快!467F 09/01 09:34
neyothen: 太高了吧被K468F 09/01 09:34
CaminoI: 不469F 09/01 09:34
zealotlai274: 還是上當了470F 09/01 09:35
Axwell: 投手真猛471F 09/01 09:35
foxey: 啊 被HFB騙了472F 09/01 09:35
rong1994: 高球 哭啊473F 09/01 09:35
ohya111326: K474F 09/01 09:35
Jimimy: 高球還是忍不住475F 09/01 09:35
chargebro: 100多球還可以100mile476F 09/01 09:35
Axwell: 破百球還能投百mph477F 09/01 09:35
PPTenshi: 被復仇了478F 09/01 09:35
hpfan: 哭479F 09/01 09:35
beauman002: 100球100mph480F 09/01 09:35
a27783322: 100麥太狠了481F 09/01 09:35
Roken241225: 這球太猛 沒話說482F 09/01 09:35
CaminoI: 100M還是太兇了483F 09/01 09:35
rong1994: 100麥 怪物啊484F 09/01 09:35
jttrumx: 100上竄的真難選485F 09/01 09:35
jerrychien06: 這種球很難忍住 第一球很甜沒打可惜486F 09/01 09:35
CaminoI: 覺得有刻意對灝宇催球速487F 09/01 09:35
Wwc0130: 可惜了 第一球沒揮488F 09/01 09:35
mp5good: 好猛489F 09/01 09:35
evil4422: 很猛這球 看來李很想再尻一隻490F 09/01 09:35
samuncle123: 高球100麥  這被三振認了491F 09/01 09:36
rong1994: 阿就下班最後一球了當然用力催492F 09/01 09:36
leo79415: 至少這打席沒再小看李了493F 09/01 09:36
Jimimy: 因為應該投完他就要下了494F 09/01 09:36
Roken241225: 這打擊能攻擊的球只有第一球 而且也是偏內角495F 09/01 09:36
shigeno24: 丟在那個位置100麥IVB20 應該沒人揮得到496F 09/01 09:36
Jimimy: 第一球如果打定主意要打對投手也蠻危險的497F 09/01 09:36
evil4422: 第一球比較可惜498F 09/01 09:36
l5i9hbba: 可惜 第一球壓線100能破壞如果是之前大概就擦棒被捕了499F 09/01 09:37
lsj049: 剛剛選球再嚴謹一點就BB了500F 09/01 09:38
lsj049: 可惜
CaminoI: 第一球是最好的機會 但可能也打不遠502F 09/01 09:38
CaminoI: 炸裂輕輕鬆鬆
beauman002: 快魯閣了504F 09/01 09:39
PPTenshi: 準備魯閣囉505F 09/01 09:39
lsj049: 下局大概要看到野手投球了506F 09/01 09:39
marx93521: 慘啊老虎507F 09/01 09:39
moonzone: 丸子508F 09/01 09:39
gn7722: 腫麼被k惹509F 09/01 09:39
Marshalkobe2: 李要上來投嗎510F 09/01 09:42
signm: 全隊只剩李還醒著511F 09/01 09:45
gn7722: 老虎涼打線,李灝宇應該是下班了512F 09/01 09:45
gn7722: 老虎新秀大物打擊率持續探底
tnl0716: 前一打席被確信步 投手也想討回來吧 認真催球速514F 09/01 09:47
andy60214: 剛剛Max也是同角度被K一顆515F 09/01 09:49
gn7722: 老虎持續出局如風516F 09/01 09:49
gn7722: 李灝宇太急了,全壘打後應該會比較閃,至少可以看兩顆
a27783322: 少主最近也是蠻烙賽的518F 09/01 09:50
leo79415: Mck上場投球519F 09/01 09:50
gn7722: 投手連續兩好球搶好球數機率不高520F 09/01 09:50
mikehu: 野手上場521F 09/01 09:50
godoggy: 主審好人522F 09/01 09:51
beauman002: 也不挑戰了趕時間523F 09/01 09:51
evil4422: 不能挑戰啊524F 09/01 09:51
chargebro: 38525F 09/01 09:52
leo79415: 野手投球不能挑戰 主審也會故意放超大好球帶526F 09/01 09:52
beauman002: 對吼野手投球不能挑戰527F 09/01 09:52
marx93521: 倒是投進去啊528F 09/01 09:52
a27783322: 少主下了529F 09/01 09:52
chargebro: 這樣還全壘打530F 09/01 09:52
foxey: 炸野手大壞球531F 09/01 09:52
leo79415: 沒差拉 隨便投投532F 09/01 09:52
evil4422: 刷到了533F 09/01 09:52
CaminoI: McK被炸 他代班的 算了啦534F 09/01 09:52
koi33000: 今天狀況好像刷野手535F 09/01 09:52
marx93521: 被刷一發XDD536F 09/01 09:52
a27783322: 魯閣537F 09/01 09:52
thirtyto: 尻到538F 09/01 09:52
ken159753000: 太狠了539F 09/01 09:53
rong1994: 不講武德540F 09/01 09:53
lsj049: 蝦仁豬心541F 09/01 09:53
setashuyo: 打慢壘大師542F 09/01 09:53
kevin74105: 還好有李的1分 不然真的太慘了..543F 09/01 09:53
chargebro: 好像在打壘球544F 09/01 09:53
marx93521: 還以為會界外545F 09/01 09:53
evil4422: 這其實不好打欸546F 09/01 09:53
thirtyto: 慢壘  尻全壘打547F 09/01 09:53
AFranklin: 慘548F 09/01 09:53
beauman002: 小便球大師549F 09/01 09:53
leo79415: 沒在練投的人光要丟進好球真的不容易550F 09/01 09:53
lsj049: 灝宇移到二壘551F 09/01 09:53
freeview: 不講武德552F 09/01 09:54
foxey: 這球慢成這樣又大區度 不揮還真的很難進好球帶553F 09/01 09:54
chargebro: 笑死,丟到人554F 09/01 09:54
huaiken: 老虎最近真的鳥555F 09/01 09:54
CaminoI: 投球來說 羅傑真的比較強 可惜離開了556F 09/01 09:54
leo79415: 靠邀 你剛剛怎麼不丟速球557F 09/01 09:54
jun10: 這樣也能丟人 笑死558F 09/01 09:54
chargebro: 原來有速球559F 09/01 09:54
Marshalkobe2: 偷催560F 09/01 09:54
foxey: 當傳球投就準了www561F 09/01 09:54
beauman002: 認真囉562F 09/01 09:54
thirtyto: 嚇死563F 09/01 09:55
marx93521: 不是這還能砸人的嗎564F 09/01 09:55
CaminoI: Peck也上來了565F 09/01 09:55
Marshalkobe2: 又差點失誤566F 09/01 09:55
gn7722: 小便球也不會投喔?567F 09/01 09:55
as5688ck: 連這樣都可以差點失誤568F 09/01 09:56
marx93521: 靠北老虎傳球怎麼都那麼可怕,這傳二壘還差點噴掉569F 09/01 09:56
gn7722: 較你阿嬤來都投得比你好570F 09/01 09:56
CaminoI: 投球不容易阿571F 09/01 09:56
gn7722: 你當野手傳球不會喔?572F 09/01 09:56
CaminoI: 難得投好結果沒接好573F 09/01 09:57
chargebro: 主審也太嚴格574F 09/01 09:57
supreme123: 不是曲球就是小便球 看起來都一樣啊XDD575F 09/01 09:57
as5688ck: 主審還不想下班嗎?576F 09/01 09:57
beauman002: 偷催577F 09/01 09:57
kevin74105: 超大好球帶578F 09/01 09:57
gn7722: 你就把捕手當成一壘手不就好了579F 09/01 09:57
photoB1N: 欸在幹嘛580F 09/01 09:57
Mryuan: 笑死581F 09/01 09:58
leo79415: 野手通常不丟太多速球是怕受傷啦 都在吃垃圾時間了582F 09/01 09:58
chargebro: 真的當壘球在投583F 09/01 09:58
CaminoI: 他長傳臂力滿好的 但不會投球584F 09/01 09:58
gn7722: 你怎麼傳一壘,你就怎麼傳本壘啊585F 09/01 09:58
CaminoI: 好人586F 09/01 09:58
bluehttp: 老虎球迷應該也炸裂了  打太爛587F 09/01 09:58
jun10: 主審根本亂判588F 09/01 09:59
leo79415: 感覺沒啥機會輪到李 除非對面也派野手上來589F 09/01 09:59
jiaxie: 雙城也可以回禮590F 09/01 10:00
gn7722: 剛查了一下,老虎近7場比賽涼的可怕,幾乎沒人打擊率超過591F 09/01 10:01
gn7722: 2成
gn7722: 是全隊集體超涼那種沒一個例外
Jimimy: 話說大物Jenkins首轟是刷野手XDDD594F 09/01 10:03
CaminoI: 真的很涼595F 09/01 10:04
lsj049: MCK投手打擊www596F 09/01 10:04
PPTenshi: 這算是一種破產版大谷嗎597F 09/01 10:06
photoB1N: 88598F 09/01 10:08
leo79415: 又在偷拍落寞的李599F 09/01 10:09
Jimimy: 大家趕著離開 李一個人坐著600F 09/01 10:10
jack86326: 道歉野球 https://youtu.be/hLik-Gj5yPs601F 09/01 13:32

--
※ 看板: Baseball 文章推薦值: 0 目前人氣: 0 累積人氣: 4 
分享網址: 複製 已複製
r)回覆 e)編輯 d)刪除 M)收藏 ^x)轉錄 同主題: =)首篇 [)上篇 ])下篇